Laurinburg-Maxton, NC

1:53 PM EDT on June 26, 2017 (GMT -0400)
Laurinburg-Maxton

Weather History for KMEB - February, 2014

Change the Weather History Date:

Wednesday, February 5, 2014

  Actual Average (KHFF) Record (KHFF)
Temperature  
Mean Temperature 50 °F -  
Max Temperature 62 °F 54 °F 75 °F (2008)
Min Temperature 39 °F 32 °F 17 °F (2009)
Degree Days  
Heating Degree Days 14    
Moisture  
Dew Point 43 °F    
Average Humidity 94    
Maximum Humidity 100    
Minimum Humidity 59    
Precipitation  
Precipitation 0.11 in - - ()
Sea Level Pressure  
Sea Level Pressure 29.94 in    
Wind  
Wind Speed 4 mph (WSW)    
Max Wind Speed 16 mph    
Max Gust Speed 24 mph    
Visibility 4 miles    
Events Fog , Rain    
Averages and records for this station are not official NWS values.
T = Trace of Precipitation, MM = Missing Value Source: NWS Daily Summary

Daily Weather History Graph

Daily Weather History Graph

Search for Another Location

Airport or City:

Trip Planner

Search our weather history database for the weather conditions in past years. The results will help you decide how hot, cold, wet, or windy it might be!

Date:

Astronomy

Feb. 05, 2014 Rise Set
Actual Time 7:12 AM EST 5:50 PM EST
Civil Twilight 6:46 AM EST 6:17 PM EST
Nautical Twilight 6:16 AM EST 6:47 PM EST
Astronomical Twilight 5:46 AM EST 7:16 PM EST
Moon 10:43 AM EST (2/5) No Moon Set
Length of Visible Light 11h 30m
Length of Day
10h 37m
Waxing Crescent, 39% of the Moon is Illuminated
Feb 5
Waxing Crescent
Feb 6
First Quarter
Feb 14
Full
Feb 22
Last Quarter
Mar 1
New

Hourly Weather History & Observations

Time (EST) Temp. Windchill Dew Point Humidity Pressure Visibility Wind Dir Wind Speed Gust Speed Precip Events Conditions
12:52 AM 39.0 °F - 39.0 °F 100% 30.09 in 0.8 mi Calm Calm - N/A   Overcast
1:20 AM 39.0 °F 36.8 °F 39.0 °F 100% 30.08 in 1.0 mi NW 3.5 mph - N/A   Overcast
1:52 AM 39.0 °F - 39.0 °F 100% 30.07 in 1.2 mi Calm Calm - N/A   Overcast
2:26 AM 39.0 °F 36.8 °F 39.0 °F 100% 30.04 in 2.5 mi North 3.5 mph - N/A   Overcast
2:33 AM 39.0 °F 36.8 °F 39.0 °F 100% 30.04 in 3.0 mi NE 3.5 mph - N/A   Overcast
2:40 AM 39.0 °F 36.8 °F 39.0 °F 100% 30.04 in 2.5 mi North 3.5 mph - N/A   Overcast
2:52 AM 39.0 °F - 39.0 °F 100% 30.03 in 2.5 mi Calm Calm - 0.00 in Rain Light Rain
3:13 AM 39.0 °F 35.7 °F 39.0 °F 100% 30.02 in 5.0 mi North 4.6 mph - 0.04 in Rain Light Rain
3:23 AM 39.0 °F 36.8 °F 39.0 °F 100% 30.01 in 7.0 mi NNE 3.5 mph - 0.04 in Rain Light Rain
3:40 AM 39.0 °F - 39.0 °F 100% 30.00 in 6.0 mi Calm Calm - 0.05 in   Overcast
3:52 AM 39.0 °F - 39.0 °F 100% 30.00 in 5.0 mi Calm Calm - 0.05 in   Overcast
4:52 AM 39.0 °F - 39.0 °F 100% 29.98 in 5.0 mi Calm Calm - 0.00 in   Overcast
5:16 AM 39.0 °F 35.7 °F 39.0 °F 100% 29.94 in 1.8 mi ESE 4.6 mph - N/A   Overcast
5:33 AM 39.0 °F 36.8 °F 39.0 °F 100% 29.94 in 0.8 mi SSE 3.5 mph - N/A   Mist
5:52 AM 39.0 °F 36.8 °F 39.0 °F 100% 29.94 in 0.5 mi South 3.5 mph - N/A Fog Fog
6:34 AM 39.9 °F - 39.9 °F 100% 29.94 in 0.8 mi Calm Calm - N/A   Mist
6:52 AM 39.9 °F 37.8 °F 39.9 °F 100% 29.95 in 0.8 mi WNW 3.5 mph - N/A   Mist
7:05 AM 39.9 °F - 39.9 °F 100% 29.95 in 1.0 mi Calm Calm - N/A   Mist
7:32 AM 39.9 °F 37.8 °F 39.9 °F 100% 29.96 in 0.5 mi WNW 3.5 mph - N/A Fog Fog
7:52 AM 39.9 °F - 39.9 °F 100% 29.96 in 0.5 mi Calm Calm - N/A Fog Fog
8:52 AM 39.9 °F 36.7 °F 39.9 °F 100% 29.94 in 0.5 mi South 4.6 mph - 0.01 in Fog , Rain Light Rain
9:11 AM 41.0 °F 37.1 °F 41.0 °F 100% 29.93 in 0.8 mi South 5.8 mph - 0.01 in Rain Light Rain
9:27 AM 41.0 °F 38.0 °F 41.0 °F 100% 29.92 in 1.0 mi SSE 4.6 mph - 0.01 in   Overcast
9:52 AM 42.1 °F 38.4 °F 42.1 °F 100% 29.91 in 1.5 mi South 5.8 mph - 0.02 in Rain Light Rain
10:32 AM 44.1 °F 40.1 °F 44.1 °F 100% 29.90 in 0.8 mi SW 6.9 mph - 0.03 in Rain Light Rain
10:41 AM 45.0 °F 40.6 °F 45.0 °F 100% 29.89 in 1.2 mi SW 8.1 mph - 0.03 in Rain Light Rain
10:52 AM 46.0 °F 41.9 °F 46.0 °F 100% 29.90 in 3.0 mi SW 8.1 mph - 0.03 in Rain Light Rain
11:49 AM 46.4 °F 41.9 °F 46.4 °F 100% 29.89 in 1.8 mi WSW 9.2 mph - 0.00 in   Overcast
11:52 AM 46.9 °F - 46.9 °F 100% 29.89 in 1.5 mi WSW 11.5 mph - 0.00 in   Overcast
12:23 PM 48.9 °F - 48.9 °F 100% 29.87 in 0.8 mi WSW 9.2 mph - N/A   Overcast
12:52 PM 50.0 °F - 50.0 °F 100% 29.86 in 0.8 mi WSW 11.5 mph - N/A   Overcast
1:01 PM 50.0 °F - 50.0 °F 100% 29.85 in 1.2 mi WSW 12.7 mph - N/A   Overcast
1:47 PM 51.8 °F - 51.8 °F 100% 29.83 in 2.5 mi WSW 11.5 mph - N/A   Overcast
1:52 PM 52.0 °F - 52.0 °F 100% 29.83 in 4.0 mi WSW 10.4 mph - N/A   Overcast
2:23 PM 55.9 °F - 54.0 °F 93% 29.83 in 9.0 mi WSW 10.4 mph - N/A   Overcast
2:52 PM 60.1 °F - 55.0 °F 83% 29.83 in 10.0 mi West 11.5 mph - N/A   Mostly Cloudy
3:01 PM 61.0 °F - 54.0 °F 78% 29.83 in 10.0 mi West 15.0 mph 20.7 mph N/A   Partly Cloudy
3:52 PM 62.1 °F - 50.0 °F 65% 29.84 in 10.0 mi West 16.1 mph 24.2 mph N/A   Clear
4:52 PM 62.1 °F - 48.9 °F 62% 29.86 in 10.0 mi West 11.5 mph - N/A   Clear
5:52 PM 55.9 °F - 44.1 °F 64% 29.90 in 10.0 mi West 5.8 mph - N/A   Clear
6:52 PM 51.1 °F - 46.0 °F 83% 29.91 in 10.0 mi WNW 3.5 mph - N/A   Clear
7:52 PM 48.0 °F - 46.0 °F 93% 29.94 in 10.0 mi WSW 3.5 mph - N/A   Clear
8:52 PM 45.0 °F - 43.0 °F 93% 29.97 in 10.0 mi Calm Calm - N/A   Clear
9:52 PM 50.0 °F - 41.0 °F 71% 30.00 in 10.0 mi NNW 8.1 mph - N/A   Overcast
10:52 PM 50.0 °F - 36.0 °F 59% 30.05 in 10.0 mi NNW 11.5 mph - N/A   Overcast